Theta_e
299 298 297 297 297 297 296 296 295 295 295 294 293 293 293 293 293 292 292 292 293 293 293 291 291 291 290 288 286 285 284 283 283 281 279 279 277 278 282 283 285 284 285
298 297 297 297 297 296 295 295 295 295 295 294 294 293 293 292 292 292 291 293 292 291 292 292 291 292 288 287 285 284 283 281 281 279 278 278 278 282 279 281 283 284 284
297 296 296 295 295 295 295 295 295 295 295 295 294 292 292 291 291 291 291 291 291 292 292 291 291 288 286 285 284 282 281 283 278 278 278 278 278 278 279 283 283 283 284
296 295 294 294 294 294 295 295 295 295 294 293 293 292 291 291 290 290 290 290 290 290 290 290 290 288 288 284 283 281 281 279 277 276 276 276 276 276 277 278 280 282 281
296 295 295 296 296 296 295 295 294 293 293 293 292 292 291 291 291 289 289 288 288 288 288 287 288 287 287 287 285 281 280 277 276 277 275 275 275 276 276 280 278 279 279
296 295 296 295 295 294 294 293 293 292 292 291 291 291 290 291 292 293 291 287 288 287 287 286 286 285 286 290 290 288 283 281 279 277 274 276 274 276 278 279 277 278 277
294 294 294 295 294 294 294 293 292 291 291 291 290 290 290 290 293 293 291 289 287 286 285 285 285 287 284 284 288 289 287 287 285 281 278 279 278 280 280 278 278 278 278
291 291 291 292 292 292 292 291 292 292 291 290 290 290 290 290 293 292 291 287 286 285 285 285 284 284 283 282 282 282 281 282 284 283 280 280 281 282 280 280 280 280 280
288 288 289 289 289 288 288 289 290 289 288 288 286 287 287 288 291 291 290 286 284 284 284 285 284 284 285 287 281 281 280 280 285 286 286 285 285 284 282 281 278 278 277
287 287 287 286 287 287 287 286 286 287 285 285 285 285 285 286 289 290 290 285 283 284 284 284 284 283 287 288 281 280 279 280 281 282 282 284 285 284 284 281 282 278 279
285 285 284 284 284 285 284 285 284 285 286 286 286 286 286 286 287 289 289 285 283 283 283 283 283 288 289 289 287 281 282 282 283 282 282 281 281 281 281 282 282 281 279
284 284 283 283 284 284 284 284 284 284 284 284 284 284 285 286 286 288 288 288 288 286 285 284 284 287 288 289 287 285 286 283 281 280 280 279 279 280 281 281 280 280 280
284 282 281 281 283 283 283 284 284 282 280 283 283 283 283 284 284 287 287 287 287 286 285 286 288 288 287 287 288 286 283 282 280 279 279 280 281 281 279 278 277 277 276
284 281 280 282 282 280 282 282 279 280 282 282 282 282 283 283 284 285 284 284 285 286 286 285 285 286 286 284 283 284 282 282 282 281 280 279 279 278 278 278 277 276 275
283 284 281 284 282 281 282 280 282 282 282 279 282 282 282 282 283 286 286 284 285 284 284 281 282 281 280 280 282 282 282 283 282 283 281 279 278 278 277 278 278 276 274
283 283 283 283 283 283 283 283 286 286 286 287 286 285 284 286 286 287 288 287 287 286 278 274 273 274 276 277 278 281 282 283 283 282 280 279 278 278 277 277 276 275 273
283 283 283 282 282 282 282 282 281 284 286 286 286 286 286 286 287 287 288 287 287 286 282 278 275 277 276 276 277 278 281 282 282 281 280 279 279 277 277 276 275 274 272
282 282 281 281 282 282 282 282 282 281 281 282 285 285 286 286 286 287 287 286 282 283 283 279 272 272 273 274 276 276 277 280 281 281 280 280 279 278 277 276 276 273 272
282 282 282 282 282 282 282 282 282 282 282 282 283 284 285 286 286 286 285 282 281 281 282 282 277 277 279 279 279 280 276 278 280 280 280 279 279 278 276 276 275 274 272
280 281 282 282 282 281 282 281 281 282 282 282 281 282 282 283 282 282 282 282 281 281 281 281 282 281 281 281 275 276 277 278 279 279 279 279 278 278 277 276 275 273 270
281 282 282 282 281 281 281 281 281 281 281 281 281 282 284 282 281 281 281 281 281 281 281 281 282 282 281 277 278 279 280 280 280 279 279 278 277 277 276 275 274 273 271
282 282 282 282 282 281 282 282 282 281 281 281 281 281 283 281 281 280 280 280 280 280 280 276 271 271 273 273 274 277 278 279 278 278 277 276 276 276 275 274 273 272 270
274 274 275 280 281 282 281 281 281 281 280 275 271 274 277 281 281 281 281 281 281 280 281 281 281 277 281 282 282 276 275 275 276 278 277 276 276 274 274 273 272 270 269
269 269 269 268 267 267 267 267 267 272 273 267 268 271 281 281 281 278 276 280 280 280 280 277 269 269 268 277 278 274 272 273 274 276 276 276 274 274 273 272 271 269 269
267 267 267 266 265 265 265 265 265 265 265 266 267 267 269 280 280 278 269 269 280 278 279 274 266 267 267 268 267 270 271 276 276 276 276 275 274 274 273 271 269 268 268
264 264 264 263 263 263 263 263 263 263 263 263 264 264 264 265 266 267 268 266 267 272 277 278 273 268 267 266 267 269 272 274 274 274 275 275 274 272 271 271 271 271 273
Wind_Speed
6 7 7 6 7 7 7 6 7 6 7 7 7 7 8 8 8 8 8 8 10 10 9 9 11 7 6 5 5 4 5 5 9 4 1 1 3 1 3 2 2 2 3
5 6 6 6 6 7 7 7 7 7 7 7 7 9 9 9 9 11 12 11 12 11 12 10 11 7 7 6 5 9 6 4 4 7 2 2 2 1 2 3 3 1 3
5 5 5 5 5 6 6 6 6 6 7 7 7 8 7 8 9 9 10 11 11 12 11 11 11 7 7 5 5 5 3 4 3 3 3 1 2 1 1 1 3 2 2
5 5 5 6 6 6 6 6 6 6 6 6 6 6 7 7 7 7 8 9 9 9 9 9 9 9 10 7 7 7 6 4 3 3 3 3 3 2 1 2 2 1 0
4 3 2 2 1 1 1 2 3 4 4 5 5 6 6 7 7 7 7 8 8 8 7 8 7 7 11 10 7 6 7 4 3 4 2 1 2 1 3 2 2 2 2
6 6 5 4 4 2 2 3 3 4 4 5 5 6 6 5 7 12 9 6 7 7 8 6 7 7 8 12 14 14 12 9 6 4 3 4 4 3 2 2 2 1 1
7 7 6 6 5 5 4 2 3 4 4 5 5 5 6 6 9 11 11 7 5 6 6 6 6 5 7 7 11 11 12 15 9 8 5 5 4 6 5 3 3 2 2
7 6 6 5 5 5 5 4 4 3 3 3 4 5 5 5 8 9 10 6 6 6 6 7 7 7 7 7 6 6 7 6 7 4 5 5 4 4 4 4 3 2 1
7 6 5 5 5 6 6 6 5 5 4 4 4 5 5 6 10 10 7 4 5 6 6 7 6 6 9 13 7 7 6 6 8 10 9 7 7 10 7 4 2 2 1
6 5 5 5 5 5 5 5 3 4 3 3 4 4 5 5 9 11 8 3 5 4 5 6 8 6 9 14 8 7 8 7 6 4 4 7 7 7 11 3 2 2 2
3 4 5 5 4 4 4 3 3 3 3 4 5 5 5 4 6 12 12 4 2 3 2 2 3 7 9 14 15 7 7 7 9 5 4 3 3 3 3 3 3 2 2
5 5 5 5 4 4 6 5 5 5 5 5 4 4 3 5 6 9 12 11 9 4 3 1 3 7 10 12 10 7 9 8 5 5 5 5 5 5 4 3 4 3 1
7 6 5 5 4 4 4 6 5 4 3 6 6 7 7 6 3 12 12 14 9 3 1 4 6 5 6 6 10 10 5 4 4 4 5 6 5 4 5 4 3 4 4
4 3 2 4 4 3 2 1 1 3 6 6 6 7 7 6 8 9 6 5 7 4 6 3 1 1 1 2 2 5 3 4 5 4 3 2 3 4 3 3 2 3 2
3 4 3 4 4 3 2 2 4 4 4 3 5 4 6 6 7 11 9 4 3 3 3 2 2 2 2 1 1 3 3 3 4 4 3 3 3 4 2 1 2 2 2
3 4 4 5 5 6 6 4 11 10 11 11 13 8 6 11 14 13 13 10 6 6 3 3 3 2 1 1 1 1 3 4 4 3 3 4 4 4 3 2 1 2 3
4 4 4 5 5 4 5 5 6 7 11 14 14 14 13 13 13 15 11 9 7 4 5 2 1 1 2 3 2 2 2 3 4 4 4 5 5 5 5 3 2 2 2
5 7 5 4 5 5 5 5 4 5 6 7 11 13 14 14 14 13 11 6 4 3 3 4 3 3 3 3 3 3 2 2 3 4 4 4 5 5 5 4 4 3 3
6 5 5 5 4 3 5 6 6 5 7 5 4 8 9 13 13 11 11 4 4 6 6 4 2 3 4 4 3 1 1 1 3 3 4 3 4 4 3 2 3 4 4
6 9 6 6 6 6 6 6 6 6 6 5 6 6 6 6 5 6 4 4 3 2 3 3 3 3 2 2 2 2 2 2 2 2 3 3 3 3 4 5 4 4 2
6 6 9 6 5 6 6 6 5 5 5 4 5 4 9 4 4 6 6 5 5 5 5 4 4 4 2 2 2 2 2 1 1 2 2 3 3 3 3 4 4 4 4
6 5 6 6 5 6 6 4 4 4 3 4 4 4 7 4 4 5 5 5 5 6 5 4 3 2 1 0 0 1 1 2 2 3 3 3 3 3 3 4 4 3 3
4 5 4 4 5 5 4 3 2 1 1 2 2 3 3 4 4 5 6 6 5 6 5 5 6 5 4 3 3 3 2 2 2 3 4 4 4 4 4 4 4 3 3
4 4 4 3 3 1 2 0 1 1 2 3 3 2 5 6 6 6 4 6 6 6 6 3 3 4 4 4 3 2 3 3 3 5 7 5 5 6 4 4 4 3 3
3 3 3 3 2 1 1 2 2 3 3 2 3 3 3 5 7 6 4 4 6 6 7 5 4 4 5 6 5 5 4 5 3 4 4 5 5 7 5 4 4 3 3
3 3 3 3 3 3 3 3 3 2 2 2 3 3 3 3 3 4 4 4 4 5 8 7 6 8 7 5 6 5 5 6 5 6 4 4 5 4 4 5 7 4 6
Wind_Direction
169 169 179 195 195 192 201 210 208 203 209 209 204 204 204 206 204 206 210 209 216 219 216 211 223 205 217 211 202 197 212 190 236 275 252 269 322 299 293 300 281 273 285
168 167 189 193 195 201 207 209 209 214 211 213 208 210 213 212 208 211 215 218 220 219 222 219 225 212 214 208 203 216 213 202 194 253 305 280 229 305 278 300 289 285 272
164 171 190 202 210 219 221 222 222 225 224 226 218 218 218 218 222 223 220 221 222 225 221 219 226 201 220 212 213 215 201 209 177 163 244 255 260 164 299 252 260 261 260
155 169 194 205 212 220 223 222 223 227 227 233 232 231 228 227 227 225 221 224 226 226 224 218 216 205 214 202 208 207 192 181 165 158 197 224 201 234 158 179 299 266 343
129 149 192 201 177 203 263 263 253 250 251 248 246 250 243 234 239 231 226 221 220 228 226 223 221 208 198 196 201 202 179 174 169 182 202 194 227 203 202 161 224 257 62
77 70 59 50 39 13 335 302 287 275 268 260 260 256 260 255 249 248 233 228 235 235 238 232 226 217 218 214 208 196 187 189 191 172 198 202 226 192 157 173 201 76 205
55 48 37 27 33 22 4 343 301 279 266 269 267 260 265 263 259 258 245 243 241 236 233 224 224 223 209 214 227 210 200 204 192 191 191 200 189 192 160 167 186 148 214
50 46 28 18 16 8 14 11 359 353 346 335 330 324 313 298 292 287 257 245 248 249 249 227 215 211 215 195 195 205 211 211 209 185 181 193 192 155 170 167 155 160 252
43 31 13 12 6 8 22 14 19 14 12 10 346 340 337 323 331 330 292 244 248 256 258 245 222 215 217 201 178 202 207 218 214 198 193 185 162 165 156 131 171 147 234
34 8 10 17 16 18 21 17 11 26 12 352 343 330 315 317 330 337 333 249 264 268 269 267 243 219 212 203 192 191 199 199 170 175 189 191 186 188 180 174 164 179 180
33 28 32 28 32 23 29 21 25 14 9 10 356 349 348 345 340 343 336 296 253 278 252 263 245 247 227 208 203 196 205 161 188 176 168 156 165 158 167 186 193 180 194
30 33 26 20 20 22 34 19 18 21 20 14 357 350 351 2 348 349 346 336 309 274 278 271 268 255 247 228 211 211 210 152 147 156 160 178 191 201 190 166 162 158 92
31 17 15 7 2 16 41 45 40 16 32 26 22 15 4 360 345 0 352 348 329 310 112 36 348 305 280 247 216 199 154 142 152 165 190 207 200 163 125 107 91 104 95
61 1 39 49 30 30 28 41 66 42 40 31 19 10 360 0 0 355 346 338 340 52 92 81 354 349 173 111 135 178 163 173 181 202 202 127 122 138 145 154 143 167 117
95 76 52 71 64 54 51 79 51 37 57 50 22 6 358 3 356 354 358 354 16 72 68 36 39 40 49 75 139 171 183 197 205 211 157 144 147 149 122 148 116 137 115
95 85 73 73 67 63 60 40 50 49 42 39 32 30 17 9 7 10 21 48 49 56 29 34 9 9 317 257 222 212 210 213 217 167 155 161 159 147 142 144 113 144 134
93 96 82 73 70 62 59 56 52 41 51 40 36 32 33 27 27 36 49 37 39 36 17 25 359 300 269 254 237 223 234 198 165 167 162 156 147 143 155 157 137 122 98
104 100 93 86 84 81 75 69 61 55 44 35 36 38 37 36 38 37 32 8 11 358 357 342 319 311 295 267 254 211 187 157 155 144 144 150 145 151 157 169 164 139 125
109 104 102 96 91 80 79 74 68 62 54 43 28 23 22 31 39 39 31 28 10 0 356 350 325 323 319 308 293 262 135 145 142 140 131 136 143 153 150 136 135 137 125
96 98 98 95 88 81 78 74 69 62 58 46 33 22 18 21 18 18 11 12 2 342 330 337 348 333 328 344 8 28 50 90 110 119 136 137 137 150 156 149 146 146 132
104 98 100 93 86 86 84 77 71 62 55 44 34 8 23 22 10 10 5 3 358 352 351 349 6 8 13 47 41 62 97 94 90 119 138 139 148 154 139 137 140 137 141
107 106 98 99 100 93 89 87 80 69 53 34 8 351 11 17 5 356 354 346 342 335 330 321 314 296 300 52 109 107 128 150 147 143 141 137 138 130 130 138 139 135 139
108 113 111 109 101 99 92 95 101 76 10 315 322 336 348 358 354 343 328 324 324 325 322 315 308 298 284 260 236 199 188 194 179 146 149 150 145 148 152 153 153 145 155
111 116 116 110 92 109 139 214 288 299 329 309 308 318 349 344 331 319 311 317 314 307 299 283 264 275 274 267 271 267 198 183 170 172 164 169 168 165 156 155 167 155 157
100 103 101 113 107 98 15 9 3 358 345 333 332 343 332 335 327 320 288 283 300 301 295 290 268 251 246 252 249 245 254 198 191 166 164 167 171 170 167 160 158 155 162
77 88 95 74 56 42 33 20 359 352 351 348 338 318 314 317 300 295 292 287 276 281 288 289 279 269 256 239 239 236 231 242 197 186 171 168 176 180 172 171 180 174 191